CMM615 SKBQ-SEGU

Flight info

Callsign CMM615
Flight time N/A
Altitude 37000
Route CTG1G CTG DCT AKPEK DCT KOTIN DCT BUN DCT BOKAN UP533 QIT UW9 TEMOX TEMOX2
Aircraft B38M/M-SDE1FGHILORVWXY/HB1

Departure

Time N/A
Airport Ernesto Cortissoz International Airport (SKBQ)

Arrival

Time 2026-05-04 17:07
Airport José Joaquín de Olmedo International Airport (SEGU)
Time Latitude Longitude Altitude Speed Heading
2026-05-04 15:54 5.50597 -76.50872 36988 ft 454 kts 195°
2026-05-04 15:54 5.47598 -76.51753 36995 ft 456 kts 195°
2026-05-04 15:54 5.41507 -76.53541 36994 ft 456 kts 195°
2026-05-04 15:55 5.35417 -76.55329 36991 ft 456 kts 195°
2026-05-04 15:55 5.29321 -76.57119 36996 ft 456 kts 195°
2026-05-04 15:56 5.23231 -76.58907 36989 ft 456 kts 195°
2026-05-04 15:56 5.17144 -76.60693 37001 ft 456 kts 195°
2026-05-04 15:57 5.11040 -76.62484 37000 ft 457 kts 195°
2026-05-04 15:57 5.04974 -76.64264 37002 ft 457 kts 195°
2026-05-04 15:58 4.98872 -76.66053 36989 ft 456 kts 195°
2026-05-04 15:58 4.92772 -76.67842 36991 ft 456 kts 195°
2026-05-04 15:59 4.86671 -76.69630 36997 ft 457 kts 195°
2026-05-04 15:59 4.80572 -76.71418 36999 ft 456 kts 195°
2026-05-04 16:00 4.74501 -76.73197 37005 ft 457 kts 195°
2026-05-04 16:00 4.68390 -76.74988 37008 ft 457 kts 195°
2026-05-04 16:01 4.62286 -76.76777 37007 ft 457 kts 195°
2026-05-04 16:01 4.56148 -76.78574 37016 ft 457 kts 195°
2026-05-04 16:02 4.50048 -76.80361 36996 ft 457 kts 195°
2026-05-04 16:03 4.40902 -76.83039 37009 ft 459 kts 195°
2026-05-04 16:03 4.34761 -76.84836 37002 ft 460 kts 195°
2026-05-04 16:04 4.28601 -76.86639 37014 ft 460 kts 195°
2026-05-04 16:04 4.19354 -76.89345 37023 ft 463 kts 195°
2026-05-04 16:05 4.13186 -76.91149 37025 ft 463 kts 196°
2026-05-04 16:06 4.03957 -76.93849 37001 ft 464 kts 196°
2026-05-04 16:07 3.91553 -76.97476 36963 ft 464 kts 196°
2026-05-04 16:08 3.79139 -77.01105 36970 ft 464 kts 195°
2026-05-04 16:09 3.63586 -77.05650 37000 ft 469 kts 195°
2026-05-04 16:10 3.51094 -77.09299 37008 ft 469 kts 195°
2026-05-04 16:11 3.38597 -77.12949 37011 ft 469 kts 195°
2026-05-04 16:12 3.19838 -77.18426 37019 ft 469 kts 195°
2026-05-04 16:13 3.07316 -77.22081 37027 ft 468 kts 195°
2026-05-04 16:14 2.94815 -77.25728 37013 ft 470 kts 195°
2026-05-04 16:16 2.79103 -77.30311 37010 ft 469 kts 195°
2026-05-04 16:17 2.63465 -77.34872 37020 ft 469 kts 195°
2026-05-04 16:18 2.50937 -77.38525 37005 ft 468 kts 195°
2026-05-04 16:19 2.36381 -77.42768 37029 ft 468 kts 195°
2026-05-04 16:20 2.20705 -77.47337 37050 ft 469 kts 195°
2026-05-04 16:22 2.05103 -77.51882 37026 ft 469 kts 195°
2026-05-04 16:23 1.86301 -77.57359 37033 ft 468 kts 195°
2026-05-04 16:25 1.67499 -77.62835 37027 ft 469 kts 195°
2026-05-04 16:26 1.45611 -77.69209 37099 ft 469 kts 195°
2026-05-04 16:28 1.29930 -77.73774 37110 ft 469 kts 195°
2026-05-04 16:29 1.08046 -77.80143 37293 ft 469 kts 194°
2026-05-04 16:31 0.92348 -77.84712 37211 ft 470 kts 194°
2026-05-04 16:32 0.74690 -77.92700 37228 ft 473 kts 215°
2026-05-04 16:33 0.64115 -78.00525 37259 ft 474 kts 215°
2026-05-04 16:34 0.56181 -78.06433 37277 ft 474 kts 214°
2026-05-04 16:35 0.40376 -78.18201 37293 ft 474 kts 215°
2026-05-04 16:36 0.32442 -78.24108 37292 ft 474 kts 215°
2026-05-04 16:37 0.24490 -78.30028 37302 ft 474 kts 215°
2026-05-04 16:38 0.13941 -78.37882 37371 ft 475 kts 215°
2026-05-04 16:39 0.00697 -78.47742 37276 ft 474 kts 215°
2026-05-04 16:40 -0.04452 -78.51817 37271 ft 472 kts 226°
2026-05-04 16:40 -0.08812 -78.56749 37258 ft 473 kts 227°
2026-05-04 16:41 -0.19743 -78.69039 37246 ft 473 kts 227°
2026-05-04 16:42 -0.26269 -78.76394 36788 ft 470 kts 227°
2026-05-04 16:43 -0.30714 -78.81402 34487 ft 495 kts 226°
2026-05-04 16:43 -0.35319 -78.86593 32929 ft 493 kts 226°
2026-05-04 16:43 -0.37572 -78.89131 32522 ft 485 kts 226°
2026-05-04 16:44 -0.46400 -78.99081 30133 ft 476 kts 227°
2026-05-04 16:45 -0.50741 -79.03973 28904 ft 469 kts 227°
2026-05-04 16:46 -0.57181 -79.11216 27223 ft 458 kts 225°
2026-05-04 16:46 -0.62433 -79.14526 26046 ft 446 kts 204°
2026-05-04 16:47 -0.67923 -79.17112 25071 ft 439 kts 204°
2026-05-04 16:47 -0.73432 -79.19678 24061 ft 434 kts 204°
2026-05-04 16:48 -0.81575 -79.23463 22502 ft 425 kts 204°
2026-05-04 16:48 -0.84251 -79.24708 22033 ft 422 kts 204°
2026-05-04 16:49 -0.89530 -79.27161 21112 ft 415 kts 204°
2026-05-04 16:49 -0.94733 -79.29581 20062 ft 411 kts 204°
2026-05-04 16:50 -0.99890 -79.32006 18992 ft 411 kts 204°
2026-05-04 16:50 -1.05029 -79.34435 18081 ft 406 kts 204°
2026-05-04 16:51 -1.10090 -79.36827 17206 ft 398 kts 204°
2026-05-04 16:51 -1.12579 -79.38003 16790 ft 394 kts 204°
2026-05-04 16:51 -1.17484 -79.40321 15969 ft 387 kts 203°
2026-05-04 16:52 -1.22309 -79.42601 15147 ft 380 kts 203°
2026-05-04 16:52 -1.24692 -79.43728 14683 ft 377 kts 203°
2026-05-04 16:53 -1.29414 -79.45959 13878 ft 372 kts 203°
2026-05-04 16:53 -1.36317 -79.49223 12609 ft 363 kts 204°
2026-05-04 16:54 -1.38587 -79.50296 12215 ft 359 kts 204°
2026-05-04 16:55 -1.47471 -79.54495 10670 ft 347 kts 205°
2026-05-04 16:55 -1.51810 -79.56546 9897 ft 342 kts 205°
2026-05-04 16:56 -1.56085 -79.58567 9061 ft 337 kts 205°
2026-05-04 16:56 -1.62335 -79.61521 7949 ft 328 kts 205°
2026-05-04 16:57 -1.64384 -79.62490 7589 ft 325 kts 205°
2026-05-04 16:57 -1.68442 -79.64409 6867 ft 320 kts 205°
2026-05-04 16:58 -1.74432 -79.67241 5787 ft 314 kts 205°
2026-05-04 16:58 -1.76393 -79.68167 5473 ft 310 kts 205°
2026-05-04 16:59 -1.80252 -79.69992 4826 ft 304 kts 205°
2026-05-04 17:00 -1.87461 -79.73402 4202 ft 269 kts 205°
2026-05-04 17:00 -1.92289 -79.75685 3806 ft 245 kts 205°
2026-05-04 17:01 -1.95256 -79.77088 3577 ft 228 kts 205°
2026-05-04 17:01 -1.98053 -79.78411 3265 ft 216 kts 205°
2026-05-04 17:02 -2.00615 -79.79684 2985 ft 196 kts 208°
2026-05-04 17:02 -2.02928 -79.80978 2562 ft 186 kts 210°
2026-05-04 17:03 -2.04037 -79.81614 2332 ft 182 kts 210°
2026-05-04 17:03 -2.05122 -79.82239 2115 ft 178 kts 210°
2026-05-04 17:03 -2.07104 -79.83382 1739 ft 153 kts 210°
2026-05-04 17:04 -2.08884 -79.84408 1350 ft 145 kts 210°
2026-05-04 17:04 -2.10627 -79.85414 978 ft 144 kts 210°
2026-05-04 17:05 -2.12350 -79.86408 621 ft 142 kts 209°
2026-05-04 17:05 -2.14023 -79.87377 276 ft 140 kts 208°
2026-05-04 17:06 -2.15646 -79.88307 28 ft 113 kts 210°
2026-05-04 17:06 -2.16192 -79.88625 31 ft 69 kts 210°
2026-05-04 17:07 -2.16579 -79.88848 30 ft 19 kts 210°
2026-05-04 17:07 -2.16618 -79.88870 30 ft 20 kts 210°
2026-05-04 17:07 -2.16681 -79.89005 31 ft 16 kts 352°
2026-05-04 17:07 -2.16575 -79.88955 30 ft 18 kts 30°
2026-05-04 17:08 -2.16462 -79.88890 31 ft 18 kts 30°
2026-05-04 17:08 -2.16257 -79.88773 31 ft 15 kts 30°
2026-05-04 17:08 -2.16196 -79.88738 31 ft 14 kts 30°
2026-05-04 17:09 -2.16093 -79.88680 31 ft 12 kts 29°
2026-05-04 17:09 -2.16025 -79.88641 31 ft 11 kts 33°
2026-05-04 17:09 -2.15965 -79.88603 31 ft 11 kts 31°
2026-05-04 17:10 -2.15809 -79.88515 31 ft 12 kts 28°
2026-05-04 17:10 -2.15595 -79.88389 30 ft 19 kts 30°
2026-05-04 17:11 -2.15483 -79.88326 30 ft 18 kts 30°
2026-05-04 17:11 -2.15381 -79.88266 30 ft 16 kts 30°
2026-05-04 17:11 -2.15228 -79.88283 31 ft 12 kts 299°
2026-05-04 17:12 -2.15190 -79.88353 31 ft 11 kts 298°
2026-05-04 17:12 -2.15068 -79.88359 31 ft 14 kts 30°
2026-05-04 17:13 -2.14940 -79.88385 31 ft 0 kts 274°